{"data":{"norad_id":29349,"epoch":"2026-09-19T20:55:51.038400Z","epoch_age_seconds":68628,"freshness":"FRESH","line1":"1 29349U 06034A   26262.87211850 -.00000362  00000+0  00000+0 0  9990","line2":"2 29349   2.0212  81.6539 0001839 144.2328 199.9340  1.00272696 42265","mean_motion":1.00272696,"eccentricity":0.0001839,"inclination_deg":2.0212,"raan_deg":81.6539,"arg_perigee_deg":144.2328,"mean_anomaly_deg":199.934,"bstar":0,"rev_number":4226,"period_min":1436.083856766,"perigee_km":35778.585529511,"apogee_km":35794.093623996,"semimajor_km":42164.476576754,"source":"CELESTRAK","updated_at":"2026-09-20T09:00:35.127785Z"}}